DELTA 1 DEB, 10719

Orbit data source: Space-Track

DELTA 1 DEB, 10719 is space debris in SSO originally from a launch on Thu, 29 Jul 1976 UTC launched from the Air Force Western Test Range (AFWTR). Debris objects in space refer to the collection of defunct objects orbiting the Earth. Examples of debris include non-operational satellites, rocket bodies, and fragments generated from explosions, collisions, or faulty payload assembly.

Loading next visibility...
Identifier
10719, 1976-077AQ
Orbit
SSO
Country
Flag of USUS
Related business
Manufacturer
Unknown
Mission
Spacecraft
Bus & Motor
Unknown
Mass
Unknown
Launch date (UTC)
1976-07-29 (50 years ago)
Launch vehicle
Unknown
Launch site
Air Force Western Test Range (AFWTR)
Object type
Payload
Rocket body
Debris
Shape & HBR
Unknown shape, 0.1 m
Radar Cross Section
Small (<0.1 m²)

Expand to show TLE details & history
Last TLE update: 1 day ago

TLE from 1 day ago
0 DELTA 1 DEB
1 10719U 76077AQ  26067.29744300  .00000666  00000-0  79465-2 0  9996
2 10719 101.8879  85.5168 0232286 264.1954 111.3499 12.01384608169233
Epoch: 2026-03-08T07:08Z
TLE epoch observation values (Epoch: 2026-03-08T07:08:19.075Z)
Latitude
17.59162°
Longitude
168.62173°
Altitude
1,748.442 km
Speed
6.975 km/s
True Right ascension
05h 26m 49s
True Declination
17° 30' 17"
Sunlit
Object was in daylight at epoch
Visualization orbit readout
Latitude
Unknown
Longitude
Unknown
Altitude
Unknown
Speed
Unknown
Apparent Right ascension
Unknown
Apparent Declination
Unknown
Sunlit
N/A
Visualization observer readout
Local Sidereal Time
16:55:24
Azimuth
Unknown
Elevation
Unknown
Doppler factor
Unknown
Orbital elements
Apogee altitude
1,859.284 km
Perigee altitude
1,485.284 km
Semi-major axis
8,050.421 km
Eccentricity
0.02323
Inclination
101.8879°
RAAN
85.5168°
Arg. of periapsis
264.1954°
True anomaly
113.80234°
Mean anomaly
111.3499°
Eccentric anomaly
112.57879°
Mean motion
3.0048 °/min
Orbital period
119.81 mins
BSTAR
0.0079465
Loading maneuver chart data...
Computing Atmospheric mass density...
Loading historical data...
Loading historical data...
Loading historical data...
Loading historical data...
Loading historical data...
Loading historical data...
Loading historical data...

Documentation

Showing up to 5 results
|